This is the latest recevied weather packets stored in our database for station/object KD0SBN. If no packets are shown the sender has not sent any weather packets the latest 10 day(s).
| Time | Temp. | Humidity | Pressure | Rain* | Wind** | Luminosity | Snow |
|---|---|---|---|---|---|---|---|
| 1778308814 | 12.78° C | 61% | 1015.2 hPa | 0 mm | - | - | - |
| 1778308514 | 13.33° C | 59% | 1015 hPa | 0 mm | - | - | - |
| 1778308211 | 14.44° C | 54% | 1015.1 hPa | 0 mm | - | - | - |
| 1778307908 | 14.44° C | 53% | 1015.1 hPa | 0 mm | - | - | - |
| 1778307606 | 15° C | 53% | 1015.2 hPa | 0 mm | - | - | - |
| 1778307303 | 15° C | 51% | 1015.1 hPa | 0 mm | - | - | - |
| 1778307001 | 15° C | 53% | 1015.2 hPa | 0 mm | - | - | - |
| 1778306697 | 15° C | 52% | 1015.1 hPa | 0 mm | - | - | - |
| 1778306393 | 15° C | 53% | 1015 hPa | 0 mm | - | - | - |
| 1778306088 | 14.44° C | 52% | 1015.4 hPa | 0 mm | - | - | - |
| 1778305785 | 15° C | 54% | 1015.2 hPa | 0 mm | - | - | - |
| 1778305482 | 15° C | 52% | 1015.2 hPa | 0 mm | - | - | - |
| 1778305180 | 15° C | 52% | 1015.2 hPa | 0 mm | - | - | - |
| 1778304878 | 15.56° C | 52% | 1015.2 hPa | 0 mm | - | - | - |
| 1778304575 | 14.44° C | 55% | 1015.2 hPa | 0 mm | - | - | - |
| 1778304272 | 14.44° C | 58% | 1015.6 hPa | 0 mm | - | - | - |
| 1778303970 | 15° C | 55% | 1015.5 hPa | 0 mm | - | - | - |
| 1778303668 | 16.11° C | 53% | 1015.5 hPa | 0 mm | - | - | - |
| 1778303364 | 15° C | 54% | 1015.4 hPa | 0 mm | - | - | - |
| 1778303061 | 15° C | 57% | 1015.2 hPa | 0 mm | - | - | - |
| 1778302758 | 15.56° C | 57% | 1015.5 hPa | 0 mm | - | - | - |
| 1778302455 | 15° C | 55% | 1015.4 hPa | 0 mm | - | - | - |
| 1778302152 | 15.56° C | 55% | 1015.7 hPa | 0 mm | - | - | - |
| 1778301850 | 15.56° C | 54% | 1015.2 hPa | 0 mm | - | - | - |
| 1778301546 | 15.56° C | 53% | 1015.5 hPa | 0 mm | - | - | - |
* Rain latest hour (hover to see other rain measurements)
** Current wind speed in m/s (hover to see current wind gust speed)